EW4363 Weather Reports


time (UTC)temp
C
wind
direction
speed
KPH
gust
KPH
rain 1hr
cm
rain 24hr
cm
rain mn
cm
humidity
%
barometer
mb
20260510085803 19 254 3.2 9.7 0.00 0.89 0.00 70 1011.6
20260510085306 19 298 1.6 9.7 0.00 0.89 0.00 72 1011.6
20260510084303 18 338 0.0 3.2 0.00 0.89 0.00 74 1011.7
20260510083804 18 274 0.0 1.6 0.00 0.89 0.00 75 1011.7
20260510083303 18 263 1.6 3.2 0.00 0.89 0.00 76 1011.8
20260510082804 17 267 0.0 4.8 0.00 0.89 0.00 76 1011.8
20260510082306 17 268 0.0 3.2 0.00 0.89 0.00 78 1011.9
20260510081304 17 273 0.0 4.8 0.00 0.89 0.00 80 1011.8
20260510080303 16 270 0.0 4.8 0.00 0.89 0.00 81 1011.8
20260510075804 16 271 0.0 8.0 0.00 0.89 0.00 82 1011.8
20260510075306 16 266 0.0 3.2 0.00 0.89 0.00 82 1011.8
20260510074803 16 270 1.6 3.2 0.00 0.89 0.00 83 1011.8
20260510074303 16 275 1.6 4.8 0.00 0.89 0.00 83 1011.7
20260510073804 15 278 0.0 4.8 0.00 0.89 0.00 83 1011.6
20260510073304 15 264 0.0 3.2 0.00 0.89 0.00 85 1011.6
20260510072803 15 265 1.6 3.2 0.00 0.89 0.00 85 1011.7
20260510071804 15 273 1.6 9.7 0.00 0.89 0.00 86 1011.6
20260510071304 15 267 1.6 4.8 0.00 0.89 0.00 86 1011.6
20260510070804 15 271 1.6 4.8 0.00 0.89 0.00 88 1011.6
20260510070303 14 276 3.2 8.0 0.00 0.89 0.00 88 1011.6
20260510065803 14 276 1.6 4.8 0.00 0.89 0.00 89 1011.6
20260510064803 13 327 0.0 0.0 0.00 0.89 0.00 90 1011.6
20260510064304 13 327 0.0 1.6 0.00 0.89 0.00 90 1011.6
20260510063303 13 269 1.6 3.2 0.00 0.89 0.00 92 1011.6
20260510062804 13 304 0.0 1.6 0.00 0.89 0.00 94 1011.6
20260510062306 12 304 1.6 3.2 0.00 0.89 0.00 94 1011.5
20260510061804 12 332 0.0 0.0 0.00 0.89 0.00 94 1011.5
20260510061303 12 332 0.0 0.0 0.00 0.89 0.00 96 1011.5
20260510060804 12 332 0.0 0.0 0.00 0.89 0.00 97 1011.5
20260510060303 11 332 0.0 0.0 0.00 0.89 0.00 96 1011.4
20260510055804 11 332 0.0 0.0 0.00 0.89 0.00 96 1011.4
20260510055306 11 332 0.0 0.0 0.00 0.89 0.00 96 1011.5
20260510054803 11 332 0.0 0.0 0.00 0.89 0.00 96 1011.5
20260510054303 10 332 0.0 0.0 0.00 0.89 0.00 96 1011.5
20260510053803 10 332 0.0 0.0 0.00 0.89 0.00 96 1011.5
20260510053304 10 324 0.0 0.0 0.00 0.89 0.00 96 1011.4
20260510052804 10 324 0.0 0.0 0.00 0.89 0.00 96 1011.4
20260510052306 10 324 0.0 0.0 0.00 0.89 0.00 96 1011.4
20260510051803 11 320 0.0 0.0 0.00 0.89 0.00 96 1011.4
20260510050803 11 327 0.0 0.0 0.00 0.89 0.00 96 1011.4
20260510050303 11 327 0.0 0.0 0.00 0.89 0.00 96 1011.3
20260510045804 11 327 0.0 0.0 0.00 0.89 0.00 96 1011.3
20260510044804 11 327 0.0 0.0 0.00 0.89 0.00 96 1011.4
20260510044303 11 327 0.0 0.0 0.00 0.89 0.00 96 1011.4
20260510043803 11 327 0.0 0.0 0.00 0.89 0.00 96 1011.5
20260510043304 11 327 0.0 0.0 0.00 0.89 0.00 96 1011.5
20260510042803 11 327 0.0 0.0 0.00 0.89 0.00 96 1011.6
20260510042306 11 327 0.0 0.0 0.00 0.89 0.00 96 1011.6
20260510041804 11 327 0.0 0.0 0.00 0.89 0.00 96 1011.5
20260510041304 11 327 0.0 0.0 0.00 0.89 0.00 96 1011.5
20260510040803 11 327 0.0 0.0 0.00 0.89 0.00 96 1011.5
20260510040304 11 327 0.0 0.0 0.00 0.89 0.00 96 1011.5
20260510035803 11 327 0.0 0.0 0.00 0.89 0.00 96 1011.5
20260510035306 11 327 0.0 1.6 0.00 0.89 0.00 96 1011.6
20260510034804 11 327 0.0 0.0 0.00 0.89 0.00 96 1011.6
20260510034304 11 332 0.0 1.6 0.00 0.89 0.00 96 1011.5
20260510033804 11 323 0.0 0.0 0.00 0.89 0.00 96 1011.5
20260510033304 11 323 0.0 0.0 0.00 0.89 0.00 96 1011.6
20260510032804 11 323 0.0 0.0 0.00 0.89 0.00 96 1011.6
20260510031804 11 321 0.0 1.6 0.00 0.89 0.00 95 1011.6
20260510031304 11 320 0.0 0.0 0.00 0.89 0.00 95 1011.6
20260510030804 11 320 0.0 0.0 0.00 0.89 0.00 95 1011.5
20260510025804 11 320 0.0 0.0 0.00 0.89 0.00 95 1011.6
20260510025306 12 320 0.0 1.6 0.00 0.89 0.00 95 1011.6
20260510024804 12 320 0.0 0.0 0.00 0.89 0.00 95 1011.7
20260510023804 12 320 0.0 0.0 0.00 0.89 0.00 95 1011.7
20260510023304 12 320 0.0 0.0 0.00 0.89 0.00 95 1011.8
20260510022804 12 320 0.0 0.0 0.00 0.89 0.00 95 1011.9
20260510022306 12 320 0.0 0.0 0.00 0.89 0.00 95 1011.9
20260510021804 12 320 0.0 0.0 0.00 0.89 0.00 96 1011.9
20260510021304 12 320 0.0 3.2 0.00 0.89 0.00 96 1011.9
20260510020803 12 330 1.6 3.2 0.00 0.89 0.00 96 1011.9
20260510015805 12 329 0.0 1.6 0.00 0.89 0.00 95 1011.9
20260510015306 12 329 0.0 1.6 0.00 0.89 0.00 96 1011.9
20260510013804 12 331 0.0 1.6 0.00 0.89 0.00 95 1011.7
20260510013304 12 262 0.0 1.6 0.00 0.89 0.00 96 1011.7
20260510012803 12 262 1.6 3.2 0.00 0.89 0.00 96 1011.6
20260510012307 12 271 0.0 1.6 0.00 0.89 0.00 95 1011.5
20260510011804 12 271 0.0 1.6 0.00 0.89 0.00 95 1011.6
20260510010803 12 272 0.0 0.0 0.00 0.89 0.00 96 1011.6
20260510010303 12 272 0.0 1.6 0.00 0.89 0.00 96 1011.6
20260510005803 12 271 0.0 1.6 0.00 0.89 0.00 96 1011.7
20260510005306 12 271 0.0 1.6 0.00 0.89 0.00 95 1011.7
20260510004303 12 323 0.0 1.6 0.00 0.89 0.00 95 1011.8
20260510003803 12 325 0.0 0.0 0.00 0.89 0.00 95 1011.8
20260510003304 12 325 0.0 0.0 0.00 0.89 0.00 95 1011.8
20260510002803 12 325 0.0 0.0 0.00 0.89 0.00 95 1011.9
20260510002306 12 325 0.0 0.0 0.00 0.89 0.00 95 1011.9
20260510001803 12 325 0.0 0.0 0.00 0.89 0.00 95 1012.0
20260510001303 12 325 0.0 0.0 0.00 0.89 0.00 95 1012.0
20260510000802 12 325 0.0 1.6 0.00 0.89 0.00 95 1012.0
20260510000304 12 325 0.0 1.6 0.00 0.89 0.00 95 1012.1
20260509235803 12 325 0.0 0.0 0.00 0.89 0.00 95 1012.2
20260509235306 12 325 0.0 0.0 0.00 0.89 0.00 95 1012.4
20260509234303 12 325 0.0 0.0 0.00 0.89 0.00 95 1012.6
20260509233803 12 325 0.0 0.0 0.00 0.89 0.00 95 1012.6
20260509233303 12 325 0.0 1.6 0.00 0.89 0.00 94 1012.6
20260509232804 12 325 0.0 1.6 0.00 0.89 0.00 94 1012.5
20260509232306 13 325 1.6 3.2 0.00 0.89 0.00 95 1012.5
20260509231803 13 328 0.0 0.0 0.00 0.89 0.00 94 1012.5
20260509231303 13 328 0.0 0.0 0.00 0.89 0.00 94 1012.5
20260509230303 13 328 0.0 0.0 0.00 0.89 0.00 94 1012.5
20260509225803 13 328 0.0 0.0 0.00 0.89 0.00 94 1012.6
20260509225305 13 328 0.0 0.0 0.00 0.89 0.00 94 1012.6
20260509224803 13 328 0.0 0.0 0.00 0.89 0.00 94 1012.6
20260509224303 13 328 0.0 0.0 0.00 0.89 0.00 94 1012.6
20260509223803 13 328 0.0 0.0 0.00 0.89 0.00 94 1012.5
20260509223303 13 328 0.0 0.0 0.00 0.89 0.00 94 1012.5
20260509222803 13 328 0.0 0.0 0.00 0.89 0.00 94 1012.5
20260509222306 13 328 0.0 0.0 0.00 0.89 0.00 94 1012.6
20260509221803 13 328 0.0 0.0 0.00 0.89 0.00 94 1012.5
20260509221303 13 328 0.0 0.0 0.00 0.89 0.00 94 1012.5
20260509220811 14 328 0.0 0.0 0.00 0.89 0.00 94 1012.4
20260509215803 14 328 0.0 0.0 0.00 0.89 0.89 94 1012.5
20260509215305 14 328 0.0 0.0 0.00 0.89 0.89 94 1012.4
20260509214803 14 328 0.0 0.0 0.00 0.89 0.89 94 1012.4
20260509214303 14 328 0.0 0.0 0.00 0.89 0.89 94 1012.5
20260509213804 14 328 0.0 0.0 0.00 0.89 0.89 94 1012.6
20260509213302 14 328 0.0 1.6 0.00 0.89 0.89 93 1012.5
20260509212803 14 328 0.0 0.0 0.00 0.89 0.89 93 1012.5
20260509211304 14 328 0.0 0.0 0.00 0.89 0.89 93 1012.4
20260509210803 14 328 0.0 1.6 0.00 0.89 0.89 93 1012.4
20260509210303 14 328 0.0 0.0 0.00 0.89 0.89 93 1012.3
20260509205306 14 328 0.0 1.6 0.00 0.89 0.89 93 1012.3
20260509204804 14 328 0.0 0.0 0.00 0.89 0.89 93 1012.3
20260509204303 14 328 0.0 0.0 0.00 0.89 0.89 93 1012.2
20260509203803 14 328 0.0 0.0 0.00 0.89 0.89 93 1012.2
20260509203303 14 328 0.0 0.0 0.00 0.89 0.89 93 1012.1
20260509202803 14 328 0.0 0.0 0.00 0.89 0.89 93 1012.0
20260509202306 14 328 0.0 1.6 0.00 0.89 0.89 93 1011.8
20260509201803 14 327 1.6 3.2 0.00 0.89 0.89 93 1011.8
20260509201303 14 326 0.0 0.0 0.00 0.89 0.89 93 1011.7
20260509200804 14 325 0.0 0.0 0.00 0.89 0.89 93 1011.7
20260509200303 14 325 0.0 0.0 0.00 0.89 0.89 93 1011.5
20260509195803 14 326 0.0 0.0 0.00 0.89 0.89 93 1011.4
20260509195306 14 326 0.0 0.0 0.00 0.89 0.89 93 1011.3
20260509194803 14 326 0.0 0.0 0.00 0.89 0.89 93 1011.2
20260509194303 14 325 0.0 0.0 0.00 0.89 0.89 93 1011.1
20260509193803 14 325 0.0 0.0 0.00 0.89 0.89 93 1011.1
20260509193304 14 325 0.0 0.0 0.00 0.89 0.89 93 1011.0
20260509192803 14 325 0.0 1.6 0.00 0.89 0.89 93 1010.9
20260509192305 14 326 0.0 0.0 0.00 0.89 0.89 93 1010.9
20260509191803 14 326 0.0 0.0 0.00 0.89 0.89 93 1010.9
20260509191303 14 326 0.0 0.0 0.00 0.89 0.89 93 1010.8
20260509190804 14 326 0.0 0.0 0.00 0.89 0.89 93 1010.7
20260509190303 14 326 0.0 0.0 0.00 0.89 0.89 93 1010.7
20260509185803 14 326 0.0 3.2 0.03 0.89 0.89 93 1010.7
20260509185306 14 312 1.6 4.8 0.03 0.89 0.89 93 1010.6
20260509184803 14 318 3.2 4.8 0.03 0.89 0.89 93 1010.4
20260509183803 14 332 0.0 1.6 0.03 0.89 0.89 92 1010.1
20260509182803 14 326 1.6 3.2 0.03 0.89 0.89 91 1009.9
20260509182306 15 324 0.0 1.6 0.05 0.89 0.89 91 1009.7
20260509181803 15 323 0.0 3.2 0.05 0.89 0.89 90 1009.6
20260509181303 14 326 0.0 3.2 0.05 0.89 0.89 90 1009.5
20260509180803 14 296 0.0 4.8 0.05 0.89 0.89 90 1009.5
20260509180304 14 328 0.0 3.2 0.08 0.89 0.89 91 1009.3
20260509175803 15 304 0.0 1.6 0.08 0.89 0.89 91 1009.3
20260509175306 15 304 0.0 4.8 0.10 0.89 0.89 91 1009.4
20260509174804 15 319 1.6 4.8 0.13 0.89 0.89 90 1009.4
20260509174304 15 319 1.6 4.8 0.15 0.89 0.89 89 1009.4
20260509173803 15 290 0.0 3.2 0.15 0.89 0.89 89 1009.2
20260509173303 15 286 3.2 12.9 0.18 0.89 0.89 89 1009.1
20260509172804 15 280 3.2 9.7 0.23 0.89 0.89 89 1009.0
20260509172306 15 273 3.2 4.8 0.23 0.86 0.86 90 1009.0
20260509171803 14 269 1.6 4.8 0.28 0.86 0.86 91 1009.1
20260509171303 14 272 0.0 1.6 0.28 0.84 0.84 92 1009.3
20260509170803 14 273 0.0 3.2 0.28 0.84 0.84 92 1009.5
20260509170303 14 273 1.6 3.2 0.28 0.81 0.81 92 1009.7
20260509165803 14 274 4.8 8.0 0.28 0.79 0.79 92 1009.9
20260509164803 14 282 1.6 1.6 0.33 0.76 0.76 92 1010.5
20260509163803 14 271 1.6 4.8 0.33 0.71 0.71 92 1010.9
20260509163303 15 268 1.6 3.2 0.38 0.71 0.71 92 1011.1
20260509162306 15 284 0.0 3.2 0.43 0.61 0.61 91 1011.4
20260509161304 14 336 0.0 1.6 0.41 0.56 0.56 91 1011.8
20260509160304 15 336 0.0 0.0 0.43 0.53 0.53 90 1012.1
20260509155804 15 336 0.0 3.2 0.43 0.51 0.51 90 1012.2
20260509155306 15 335 1.6 3.2 0.41 0.48 0.48 90 1012.2
20260509154803 15 253 0.0 4.8 0.33 0.43 0.43 90 1012.2
20260509154304 15 311 1.6 4.8 0.33 0.41 0.41 89 1012.1
20260509153304 15 306 1.6 9.7 0.25 0.33 0.33 89 1012.2
20260509152804 15 314 4.8 9.7 0.23 0.25 0.25 88 1012.2
20260509151804 16 320 3.2 9.7 0.15 0.18 0.18 86 1011.6
20260509151305 16 312 0.0 1.6 0.15 0.15 0.15 84 1010.9
20260509150803 16 264 0.0 3.2 0.15 0.15 0.15 84 1010.1
20260509150303 16 292 1.6 4.8 0.10 0.10 0.10 83 1009.7
20260509145803 16 285 1.6 4.8 0.10 0.10 0.10 84 1009.5
20260509145306 16 277 1.6 4.8 0.08 0.08 0.08 84 1009.4
20260509144804 16 324 0.0 1.6 0.08 0.08 0.08 84 1009.4
20260509143803 16 296 1.6 8.0 0.08 0.08 0.08 82 1009.6
20260509143303 16 320 1.6 4.8 0.05 0.05 0.05 82 1009.7
20260509142803 16 283 1.6 8.0 0.05 0.05 0.05 81 1009.8
20260509141803 17 300 1.6 4.8 0.03 0.03 0.03 77 1010.2
20260509141303 17 319 3.2 8.0 0.03 0.03 0.03 74 1010.3
20260509140803 17 322 3.2 4.8 0.00 0.00 0.00 72 1010.4
20260509140303 18 317 3.2 8.0 0.00 0.00 0.00 69 1010.5
20260509135306 18 320 3.2 4.8 0.00 0.00 0.00 68 1011.0
20260509134304 18 324 1.6 4.8 0.00 0.00 0.00 66 1011.1
20260509133803 18 318 3.2 8.0 0.00 0.00 0.00 65 1011.4
20260509133304 18 326 1.6 4.8 0.00 0.00 0.00 64 1011.5
20260509132804 18 324 0.0 4.8 0.00 0.00 0.00 65 1011.4
20260509132306 18 318 1.6 4.8 0.00 0.00 0.00 64 1011.3
20260509131304 19 331 0.0 8.0 0.00 0.00 0.00 63 1011.2
20260509130804 19 312 1.6 4.8 0.00 0.00 0.00 63 1011.2
20260509130303 19 324 1.6 4.8 0.00 0.00 0.00 63 1011.1
20260509125803 19 322 3.2 8.0 0.00 0.00 0.00 63 1010.9
20260509124804 19 281 3.2 9.7 0.00 0.00 0.00 63 1010.6
20260509123304 18 285 3.2 8.0 0.00 0.00 0.00 67 1010.4
20260509122804 18 290 0.0 3.2 0.00 0.00 0.00 69 1010.4
20260509122306 18 327 3.2 8.0 0.00 0.00 0.00 68 1010.7
20260509121803 19 302 3.2 4.8 0.00 0.00 0.00 69 1010.8
20260509121303 19 322 4.8 9.7 0.00 0.00 0.00 69 1011.2
20260509120804 19 316 3.2 12.9 0.00 0.00 0.00 67 1011.5
20260509120303 19 290 3.2 4.8 0.00 0.00 0.00 66 1011.6
20260509115804 19 325 3.2 8.0 0.00 0.00 0.00 65 1011.8
20260509115306 19 308 3.2 11.3 0.00 0.00 0.00 64 1012.0
20260509114803 19 324 3.2 8.0 0.00 0.00 0.00 64 1012.1
20260509113804 19 316 3.2 14.5 0.00 0.00 0.00 65 1012.2
20260509113304 19 312 3.2 9.7 0.00 0.00 0.00 66 1012.3
20260509112306 19 319 4.8 11.3 0.00 0.00 0.00 65 1012.5
20260509111804 19 324 4.8 9.7 0.00 0.00 0.00 66 1012.5
20260509110303 19 326 3.2 11.3 0.00 0.00 0.00 70 1012.2
20260509105804 19 322 3.2 9.7 0.00 0.00 0.00 70 1012.2
20260509105306 19 310 3.2 8.0 0.00 0.00 0.00 70 1012.3
20260509104803 19 320 1.6 8.0 0.00 0.00 0.00 70 1012.3
20260509104304 19 322 3.2 4.8 0.00 0.00 0.00 69 1012.3
20260509103803 20 321 3.2 9.7 0.00 0.00 0.00 69 1012.4
20260509103303 20 314 1.6 8.0 0.00 0.00 0.00 69 1012.5
20260509102803 20 324 3.2 9.7 0.00 0.00 0.00 69 1012.5
20260509102306 20 314 3.2 4.8 0.00 0.00 0.00 68 1012.4
20260509101803 20 315 3.2 12.9 0.00 0.00 0.00 67 1012.4
20260509100305 20 314 1.6 4.8 0.00 0.00 0.00 67 1012.3
20260509095803 20 325 3.2 9.7 0.00 0.00 0.00 67 1012.3
20260509095306 20 320 3.2 8.0 0.00 0.00 0.00 66 1012.1
20260509093803 20 320 3.2 4.8 0.00 0.00 0.00 65 1012.2
20260509093304 20 288 1.6 4.8 0.00 0.00 0.00 64 1012.0
20260509092804 20 294 0.0 8.0 0.00 0.00 0.00 65 1012.0
20260509092306 20 285 0.0 3.2 0.00 0.00 0.00 65 1012.0